Adrian, MI

2:27 AM EDT on August 19, 2017 (GMT -0400)
Lenawee County

Weather History for KADG - March, 2013

Change the Weather History Date:

Sunday, March 24, 2013

  Actual Average Record
Temperature  
Mean Temperature 30 °F -  
Max Temperature 36 °F 47 °F 75 °F (2017)
Min Temperature 26 °F 25 °F 4 °F (1965)
Degree Days  
Heating Degree Days 34    
Moisture  
Dew Point 22 °F    
Average Humidity 71    
Maximum Humidity 85    
Minimum Humidity 54    
Precipitation  
Precipitation 0.00 in - - ()
Sea Level Pressure  
Sea Level Pressure 29.86 in    
Wind  
Wind Speed 11 mph (ENE)    
Max Wind Speed 24 mph    
Max Gust Speed 32 mph    
Visibility 10 miles    
Events      
Averages and records for this station are not official NWS values.
T = Trace of Precipitation, MM = Missing Value Source: NWS Daily Summary

Daily Weather History Graph

Daily Weather History Graph

Search for Another Location

Airport or City:

Trip Planner

Search our weather history database for the weather conditions in past years. The results will help you decide how hot, cold, wet, or windy it might be!

Date:

Astronomy

Mar. 24, 2013 Rise Set
Actual Time 7:32 AM EDT 7:53 PM EDT
Civil Twilight 7:04 AM EDT 8:21 PM EDT
Nautical Twilight 6:31 AM EDT 8:53 PM EDT
Astronomical Twilight 5:58 AM EDT 9:27 PM EDT
Moon 5:18 PM EDT (3/24) 5:44 AM EDT (3/24)
Length of Visible Light 13h 16m
Length of Day
12h 20m
Waxing Gibbous, 91% of the Moon is Illuminated
Mar 24
Waxing Gibbous
Mar 27
Full
Apr 3
Last Quarter
Apr 10
New
Apr 18
First Quarter

Hourly Weather History & Observations

Time (EDT) Temp. Windchill Dew Point Humidity Pressure Visibility Wind Dir Wind Speed Gust Speed Precip Events Conditions
12:53 AM 27.0 °F 19.5 °F 21.0 °F 78% 30.04 in 10.0 mi ENE 6.9 mph - N/A   Clear
1:53 AM 27.0 °F 21.6 °F 21.0 °F 78% 30.04 in 10.0 mi ENE 4.6 mph - N/A   Clear
2:53 AM 26.1 °F 19.4 °F 21.9 °F 84% 30.04 in 10.0 mi ENE 5.8 mph - N/A   Clear
3:53 AM 26.1 °F 20.5 °F 21.9 °F 84% 30.04 in 10.0 mi ENE 4.6 mph - N/A   Clear
4:53 AM 27.0 °F 19.5 °F 23.0 °F 85% 30.01 in 10.0 mi ENE 6.9 mph - N/A   Clear
5:53 AM 28.0 °F 21.7 °F 23.0 °F 81% 30.02 in 10.0 mi ENE 5.8 mph - N/A   Clear
6:53 AM 28.0 °F 20.8 °F 23.0 °F 81% 30.00 in 10.0 mi East 6.9 mph - N/A   Clear
7:53 AM 28.9 °F 21.1 °F 23.0 °F 78% 30.00 in 10.0 mi East 8.1 mph - N/A   Clear
8:53 AM 28.9 °F 17.3 °F 23.0 °F 78% 29.96 in 10.0 mi East 16.1 mph - N/A   Clear
9:53 AM 28.9 °F 18.2 °F 24.1 °F 82% 29.94 in 10.0 mi East 13.8 mph 21.9 mph N/A   Partly Cloudy
10:53 AM 30.0 °F 19.5 °F 24.1 °F 79% 29.93 in 10.0 mi ENE 13.8 mph - N/A   Overcast
11:53 AM 32.0 °F 20.1 °F 23.0 °F 69% 29.88 in 10.0 mi East 19.6 mph 25.3 mph N/A   Overcast
12:53 PM 34.0 °F 22.1 °F 21.9 °F 61% 29.86 in 10.0 mi East 21.9 mph 26.5 mph N/A   Overcast
1:53 PM 34.0 °F 22.7 °F 21.9 °F 61% 29.83 in 10.0 mi East 19.6 mph 26.5 mph N/A   Overcast
2:53 PM 35.1 °F 25.5 °F 23.0 °F 61% 29.80 in 10.0 mi East 15.0 mph 26.5 mph N/A   Overcast
3:53 PM 35.1 °F 24.8 °F 23.0 °F 61% 29.77 in 10.0 mi East 17.3 mph - N/A   Overcast
4:53 PM 35.1 °F 24.1 °F 23.0 °F 61% 29.73 in 10.0 mi East 19.6 mph 26.5 mph N/A   Overcast
5:53 PM 35.1 °F 23.0 °F 21.9 °F 59% 29.69 in 10.0 mi East 24.2 mph 32.2 mph N/A   Overcast
6:53 PM 34.0 °F 23.4 °F 21.0 °F 59% 29.68 in 10.0 mi East 17.3 mph 29.9 mph N/A   Overcast
7:53 PM 33.1 °F 22.2 °F 18.0 °F 54% 29.67 in 10.0 mi ENE 17.3 mph 26.5 mph N/A   Overcast
8:53 PM 32.0 °F 21.2 °F 21.0 °F 64% 29.67 in 10.0 mi ENE 16.1 mph - N/A   Overcast
9:53 PM 32.0 °F 20.5 °F 21.0 °F 64% 29.65 in 10.0 mi ENE 18.4 mph 24.2 mph N/A   Overcast
10:53 PM 30.9 °F 19.8 °F 21.9 °F 69% 29.65 in 10.0 mi ENE 16.1 mph 25.3 mph N/A   Overcast
11:53 PM 30.9 °F 19.8 °F 21.9 °F 69% 29.63 in 10.0 mi NE 16.1 mph - N/A   Overcast